Year,Month,Day,Hour,Minute,Value (Times are PST for insolation in W/m^2)
2015,06,02,00,00,0.00
2015,06,02,00,01,0.00
2015,06,02,00,02,0.00
2015,06,02,00,03,0.00
2015,06,02,00,04,0.00
2015,06,02,00,05,0.00
2015,06,02,00,06,0.00
2015,06,02,00,07,0.00
2015,06,02,00,08,0.00
2015,06,02,00,09,0.00
2015,06,02,00,10,0.00
2015,06,02,00,11,0.00
2015,06,02,00,12,0.00
2015,06,02,00,13,0.00
2015,06,02,00,14,0.00
2015,06,02,00,15,0.00
2015,06,02,00,16,0.00
2015,06,02,00,17,0.00
2015,06,02,00,18,0.00
2015,06,02,00,19,0.00
2015,06,02,00,20,0.00
2015,06,02,00,21,0.00
2015,06,02,00,22,0.00
2015,06,02,00,23,0.00
2015,06,02,00,24,0.00
2015,06,02,00,25,0.00
2015,06,02,00,26,0.00
2015,06,02,00,27,0.00
2015,06,02,00,28,0.00
2015,06,02,00,29,0.00
2015,06,02,00,30,0.00
2015,06,02,00,31,0.00
2015,06,02,00,32,0.00
2015,06,02,00,33,0.00
2015,06,02,00,34,0.00
2015,06,02,00,35,0.00
2015,06,02,00,36,0.00
2015,06,02,00,37,0.00
2015,06,02,00,38,0.00
2015,06,02,00,39,0.00
2015,06,02,00,40,0.00
2015,06,02,00,41,0.00
2015,06,02,00,42,0.00
2015,06,02,00,43,0.00
2015,06,02,00,44,0.00
2015,06,02,00,45,0.00
2015,06,02,00,46,0.00
2015,06,02,00,47,0.00
2015,06,02,00,48,0.00
2015,06,02,00,49,0.00
2015,06,02,00,50,0.00
2015,06,02,00,51,0.00
2015,06,02,00,52,0.00
2015,06,02,00,53,0.00
2015,06,02,00,54,0.00
2015,06,02,00,55,0.00
2015,06,02,00,56,0.00
2015,06,02,00,57,0.00
2015,06,02,00,58,0.00
2015,06,02,00,59,0.00
2015,06,02,01,00,0.00
2015,06,02,01,01,0.00
2015,06,02,01,02,0.00
2015,06,02,01,03,0.00
2015,06,02,01,04,0.00
2015,06,02,01,05,0.00
2015,06,02,01,06,0.00
2015,06,02,01,07,0.00
2015,06,02,01,08,0.00
2015,06,02,01,09,0.00
2015,06,02,01,10,0.00
2015,06,02,01,11,0.00
2015,06,02,01,12,0.00
2015,06,02,01,13,0.00
2015,06,02,01,14,0.00
2015,06,02,01,15,0.00
2015,06,02,01,16,0.00
2015,06,02,01,17,0.00
2015,06,02,01,18,0.00
2015,06,02,01,19,0.00
2015,06,02,01,20,0.00
2015,06,02,01,21,0.00
2015,06,02,01,22,0.00
2015,06,02,01,23,0.00
2015,06,02,01,24,0.00
2015,06,02,01,25,0.00
2015,06,02,01,26,0.00
2015,06,02,01,27,0.00
2015,06,02,01,28,0.00
2015,06,02,01,29,0.00
2015,06,02,01,30,0.00
2015,06,02,01,31,0.00
2015,06,02,01,32,0.00
2015,06,02,01,33,0.00
2015,06,02,01,34,0.00
2015,06,02,01,35,0.00
2015,06,02,01,36,0.00
2015,06,02,01,37,0.00
2015,06,02,01,38,0.00
2015,06,02,01,39,0.00
2015,06,02,01,40,0.00
2015,06,02,01,41,0.00
2015,06,02,01,42,0.00
2015,06,02,01,43,0.00
2015,06,02,01,44,0.00
2015,06,02,01,45,0.00
2015,06,02,01,46,0.00
2015,06,02,01,47,0.00
2015,06,02,01,48,0.00
2015,06,02,01,49,0.00
2015,06,02,01,50,0.00
2015,06,02,01,51,0.00
2015,06,02,01,52,0.00
2015,06,02,01,53,0.00
2015,06,02,01,54,0.00
2015,06,02,01,55,0.00
2015,06,02,01,56,0.00
2015,06,02,01,57,0.00
2015,06,02,01,58,0.00
2015,06,02,01,59,0.00
2015,06,02,02,00,0.00
2015,06,02,02,01,0.00
2015,06,02,02,02,0.00
2015,06,02,02,03,0.00
2015,06,02,02,04,0.00
2015,06,02,02,05,0.00
2015,06,02,02,06,0.00
2015,06,02,02,07,0.00
2015,06,02,02,08,0.00
2015,06,02,02,09,0.00
2015,06,02,02,10,0.00
2015,06,02,02,11,0.00
2015,06,02,02,12,0.00
2015,06,02,02,13,0.00
2015,06,02,02,14,0.00
2015,06,02,02,15,0.00
2015,06,02,02,16,0.00
2015,06,02,02,17,0.00
2015,06,02,02,18,0.00
2015,06,02,02,19,0.00
2015,06,02,02,20,0.00
2015,06,02,02,21,0.00
2015,06,02,02,22,0.00
2015,06,02,02,23,0.00
2015,06,02,02,24,0.00
2015,06,02,02,25,0.00
2015,06,02,02,26,0.00
2015,06,02,02,27,0.00
2015,06,02,02,28,0.00
2015,06,02,02,29,0.00
2015,06,02,02,30,0.00
2015,06,02,02,31,0.00
2015,06,02,02,32,0.00
2015,06,02,02,33,0.00
2015,06,02,02,34,0.00
2015,06,02,02,35,0.00
2015,06,02,02,36,0.00
2015,06,02,02,37,0.00
2015,06,02,02,38,0.00
2015,06,02,02,39,0.00
2015,06,02,02,40,0.00
2015,06,02,02,41,0.00
2015,06,02,02,42,0.00
2015,06,02,02,43,0.00
2015,06,02,02,44,0.00
2015,06,02,02,45,0.00
2015,06,02,02,46,0.00
2015,06,02,02,47,0.00
2015,06,02,02,48,0.00
2015,06,02,02,49,0.00
2015,06,02,02,50,0.00
2015,06,02,02,51,0.00
2015,06,02,02,52,0.00
2015,06,02,02,53,0.00
2015,06,02,02,54,0.00
2015,06,02,02,55,0.00
2015,06,02,02,56,0.00
2015,06,02,02,57,0.00
2015,06,02,02,58,0.00
2015,06,02,02,59,0.00
2015,06,02,03,00,0.00
2015,06,02,03,01,0.00
2015,06,02,03,02,0.00
2015,06,02,03,03,0.00
2015,06,02,03,04,0.00
2015,06,02,03,05,0.00
2015,06,02,03,06,0.00
2015,06,02,03,07,0.00
2015,06,02,03,08,0.00
2015,06,02,03,09,0.00
2015,06,02,03,10,0.00
2015,06,02,03,11,0.00
2015,06,02,03,12,0.00
2015,06,02,03,13,0.00
2015,06,02,03,14,0.00
2015,06,02,03,15,0.00
2015,06,02,03,16,0.00
2015,06,02,03,17,0.00
2015,06,02,03,18,0.00
2015,06,02,03,19,0.00
2015,06,02,03,20,0.00
2015,06,02,03,21,0.00
2015,06,02,03,22,0.00
2015,06,02,03,23,0.00
2015,06,02,03,24,0.00
2015,06,02,03,25,0.00
2015,06,02,03,26,0.00
2015,06,02,03,27,0.00
2015,06,02,03,28,0.00
2015,06,02,03,29,0.00
2015,06,02,03,30,0.00
2015,06,02,03,31,0.00
2015,06,02,03,32,0.00
2015,06,02,03,33,0.00
2015,06,02,03,34,0.00
2015,06,02,03,35,0.00
2015,06,02,03,36,0.00
2015,06,02,03,37,0.00
2015,06,02,03,38,0.00
2015,06,02,03,39,0.00
2015,06,02,03,40,0.00
2015,06,02,03,41,0.00
2015,06,02,03,42,0.00
2015,06,02,03,43,0.00
2015,06,02,03,44,0.00
2015,06,02,03,45,0.00
2015,06,02,03,46,0.00
2015,06,02,03,47,0.00
2015,06,02,03,48,0.00
2015,06,02,03,49,0.00
2015,06,02,03,50,0.00
2015,06,02,03,51,0.00
2015,06,02,03,52,0.00
2015,06,02,03,53,0.00
2015,06,02,03,54,0.00
2015,06,02,03,55,0.00
2015,06,02,03,56,0.00
2015,06,02,03,57,0.00
2015,06,02,03,58,0.00
2015,06,02,03,59,0.00
2015,06,02,04,00,0.00
2015,06,02,04,01,0.00
2015,06,02,04,02,0.00
2015,06,02,04,03,0.00
2015,06,02,04,04,0.00
2015,06,02,04,05,0.00
2015,06,02,04,06,0.00
2015,06,02,04,07,0.00
2015,06,02,04,08,0.00
2015,06,02,04,09,0.00
2015,06,02,04,10,0.00
2015,06,02,04,11,0.00
2015,06,02,04,12,0.00
2015,06,02,04,13,0.00
2015,06,02,04,14,0.00
2015,06,02,04,15,0.00
2015,06,02,04,16,0.00
2015,06,02,04,17,0.00
2015,06,02,04,18,0.00
2015,06,02,04,19,0.00
2015,06,02,04,20,0.00
2015,06,02,04,21,0.00
2015,06,02,04,22,0.00
2015,06,02,04,23,0.00
2015,06,02,04,24,0.00
2015,06,02,04,25,0.00
2015,06,02,04,26,0.00
2015,06,02,04,27,0.00
2015,06,02,04,28,0.00
2015,06,02,04,29,0.00
2015,06,02,04,30,0.00
2015,06,02,04,31,0.00
2015,06,02,04,32,0.00
2015,06,02,04,33,0.00
2015,06,02,04,34,0.00
2015,06,02,04,35,0.00
2015,06,02,04,36,0.00
2015,06,02,04,37,0.00
2015,06,02,04,38,0.00
2015,06,02,04,39,0.00
2015,06,02,04,40,0.00
2015,06,02,04,41,0.00
2015,06,02,04,42,0.00
2015,06,02,04,43,0.00
2015,06,02,04,44,0.00
2015,06,02,04,45,0.00
2015,06,02,04,46,0.00
2015,06,02,04,47,0.00
2015,06,02,04,48,0.00
2015,06,02,04,49,0.00
2015,06,02,04,50,0.00
2015,06,02,04,51,0.00
2015,06,02,04,52,0.00
2015,06,02,04,53,0.00
2015,06,02,04,54,0.00
2015,06,02,04,55,0.00
2015,06,02,04,56,0.00
2015,06,02,04,57,0.00
2015,06,02,04,58,0.00
2015,06,02,04,59,0.00
2015,06,02,05,00,0.00
2015,06,02,05,01,0.00
2015,06,02,05,02,0.00
2015,06,02,05,03,0.00
2015,06,02,05,04,0.00
2015,06,02,05,05,0.00
2015,06,02,05,06,0.00
2015,06,02,05,07,0.00
2015,06,02,05,08,0.00
2015,06,02,05,09,0.00
2015,06,02,05,10,0.00
2015,06,02,05,11,0.00
2015,06,02,05,12,0.00
2015,06,02,05,13,0.00
2015,06,02,05,14,0.00
2015,06,02,05,15,0.00
2015,06,02,05,16,0.00
2015,06,02,05,17,0.00
2015,06,02,05,18,0.00
2015,06,02,05,19,0.00
2015,06,02,05,20,0.00
2015,06,02,05,21,0.00
2015,06,02,05,22,0.00
2015,06,02,05,23,0.00
2015,06,02,05,24,0.00
2015,06,02,05,25,0.00
2015,06,02,05,26,0.00
2015,06,02,05,27,0.00
2015,06,02,05,28,0.00
2015,06,02,05,29,0.00
2015,06,02,05,30,0.00
2015,06,02,05,31,0.00
2015,06,02,05,32,0.00
2015,06,02,05,33,0.00
2015,06,02,05,34,0.00
2015,06,02,05,35,0.00
2015,06,02,05,36,0.00
2015,06,02,05,37,0.00
2015,06,02,05,38,0.00
2015,06,02,05,39,0.00
2015,06,02,05,40,0.00
2015,06,02,05,41,0.00
2015,06,02,05,42,0.00
2015,06,02,05,43,0.00
2015,06,02,05,44,0.00
2015,06,02,05,45,0.00
2015,06,02,05,46,0.00
2015,06,02,05,47,0.00
2015,06,02,05,48,0.00
2015,06,02,05,49,0.00
2015,06,02,05,50,0.00
2015,06,02,05,51,0.50
2015,06,02,05,52,5.00
2015,06,02,05,53,5.00
2015,06,02,05,54,5.00
2015,06,02,05,55,5.00
2015,06,02,05,56,5.00
2015,06,02,05,57,6.60
2015,06,02,05,58,7.00
2015,06,02,05,59,7.00
2015,06,02,06,00,7.00
2015,06,02,06,01,7.50
2015,06,02,06,02,9.00
2015,06,02,06,03,9.00
2015,06,02,06,04,10.20
2015,06,02,06,05,11.00
2015,06,02,06,06,11.80
2015,06,02,06,07,12.00
2015,06,02,06,08,12.00
2015,06,02,06,09,12.50
2015,06,02,06,10,14.00
2015,06,02,06,11,14.00
2015,06,02,06,12,15.10
2015,06,02,06,13,16.00
2015,06,02,06,14,16.00
2015,06,02,06,15,17.60
2015,06,02,06,16,18.00
2015,06,02,06,17,19.00
2015,06,02,06,18,19.00
2015,06,02,06,19,19.70
2015,06,02,06,20,21.00
2015,06,02,06,21,21.00
2015,06,02,06,22,22.40
2015,06,02,06,23,23.00
2015,06,02,06,24,23.00
2015,06,02,06,25,23.00
2015,06,02,06,26,23.00
2015,06,02,06,27,23.00
2015,06,02,06,28,23.00
2015,06,02,06,29,23.00
2015,06,02,06,30,23.00
2015,06,02,06,31,23.00
2015,06,02,06,32,23.00
2015,06,02,06,33,23.00
2015,06,02,06,34,23.00
2015,06,02,06,35,23.00
2015,06,02,06,36,23.00
2015,06,02,06,37,23.00
2015,06,02,06,38,23.00
2015,06,02,06,39,23.00
2015,06,02,06,40,24.50
2015,06,02,06,41,25.00
2015,06,02,06,42,26.20
2015,06,02,06,43,28.00
2015,06,02,06,44,28.50
2015,06,02,06,45,30.00
2015,06,02,06,46,31.00
2015,06,02,06,47,32.60
2015,06,02,06,48,33.00
2015,06,02,06,49,34.60
2015,06,02,06,50,35.00
2015,06,02,06,51,37.00
2015,06,02,06,52,37.40
2015,06,02,06,53,39.00
2015,06,02,06,54,39.40
2015,06,02,06,55,40.00
2015,06,02,06,56,41.30
2015,06,02,06,57,42.00
2015,06,02,06,58,42.00
2015,06,02,06,59,42.00
2015,06,02,07,00,42.00
2015,06,02,07,01,42.50
2015,06,02,07,02,44.00
2015,06,02,07,03,44.00
2015,06,02,07,04,44.00
2015,06,02,07,05,44.00
2015,06,02,07,06,44.00
2015,06,02,07,07,42.20
2015,06,02,07,08,41.80
2015,06,02,07,09,39.80
2015,06,02,07,10,39.00
2015,06,02,07,11,39.00
2015,06,02,07,12,37.90
2015,06,02,07,13,38.20
2015,06,02,07,14,39.00
2015,06,02,07,15,39.00
2015,06,02,07,16,39.00
2015,06,02,07,17,40.30
2015,06,02,07,18,42.40
2015,06,02,07,19,44.60
2015,06,02,07,20,46.00
2015,06,02,07,21,46.60
2015,06,02,07,22,48.30
2015,06,02,07,23,50.50
2015,06,02,07,24,52.70
2015,06,02,07,25,54.10
2015,06,02,07,26,56.40
2015,06,02,07,27,58.60
2015,06,02,07,28,60.70
2015,06,02,07,29,63.30
2015,06,02,07,30,67.80
2015,06,02,07,31,72.80
2015,06,02,07,32,78.00
2015,06,02,07,33,85.60
2015,06,02,07,34,91.70
2015,06,02,07,35,99.40
2015,06,02,07,36,106.80
2015,06,02,07,37,114.60
2015,06,02,07,38,124.00
2015,06,02,07,39,133.40
2015,06,02,07,40,143.80
2015,06,02,07,41,156.10
2015,06,02,07,42,170.60
2015,06,02,07,43,191.10
2015,06,02,07,44,204.20
2015,06,02,07,45,191.10
2015,06,02,07,46,189.40
2015,06,02,07,47,183.80
2015,06,02,07,48,183.00
2015,06,02,07,49,181.50
2015,06,02,07,50,176.50
2015,06,02,07,51,173.50
2015,06,02,07,52,169.40
2015,06,02,07,53,170.40
2015,06,02,07,54,167.40
2015,06,02,07,55,165.00
2015,06,02,07,56,163.10
2015,06,02,07,57,159.20
2015,06,02,07,58,158.00
2015,06,02,07,59,159.80
2015,06,02,08,00,162.10
2015,06,02,08,01,163.00
2015,06,02,08,02,163.00
2015,06,02,08,03,162.60
2015,06,02,08,04,162.60
2015,06,02,08,05,163.00
2015,06,02,08,06,162.30
2015,06,02,08,07,162.90
2015,06,02,08,08,165.10
2015,06,02,08,09,169.40
2015,06,02,08,10,171.90
2015,06,02,08,11,175.80
2015,06,02,08,12,181.00
2015,06,02,08,13,184.70
2015,06,02,08,14,189.90
2015,06,02,08,15,195.80
2015,06,02,08,16,198.80
2015,06,02,08,17,199.00
2015,06,02,08,18,199.00
2015,06,02,08,19,199.30
2015,06,02,08,20,201.60
2015,06,02,08,21,208.70
2015,06,02,08,22,216.00
2015,06,02,08,23,219.40
2015,06,02,08,24,220.00
2015,06,02,08,25,218.00
2015,06,02,08,26,213.60
2015,06,02,08,27,209.80
2015,06,02,08,28,203.60
2015,06,02,08,29,194.70
2015,06,02,08,30,185.80
2015,06,02,08,31,179.60
2015,06,02,08,32,175.00
2015,06,02,08,33,172.30
2015,06,02,08,34,169.10
2015,06,02,08,35,168.60
2015,06,02,08,36,167.00
2015,06,02,08,37,167.80
2015,06,02,08,38,169.00
2015,06,02,08,39,170.30
2015,06,02,08,40,171.70
2015,06,02,08,41,172.00
2015,06,02,08,42,172.00
2015,06,02,08,43,172.00
2015,06,02,08,44,172.00
2015,06,02,08,45,172.00
2015,06,02,08,46,172.90
2015,06,02,08,47,175.10
2015,06,02,08,48,177.40
2015,06,02,08,49,178.80
2015,06,02,08,50,184.10
2015,06,02,08,51,187.90
2015,06,02,08,52,190.60
2015,06,02,08,53,193.50
2015,06,02,08,54,195.70
2015,06,02,08,55,197.90
2015,06,02,08,56,199.60
2015,06,02,08,57,200.00
2015,06,02,08,58,199.20
2015,06,02,08,59,197.20
2015,06,02,09,00,197.20
2015,06,02,09,01,200.00
2015,06,02,09,02,204.60
2015,06,02,09,03,206.40
2015,06,02,09,04,208.00
2015,06,02,09,05,210.30
2015,06,02,09,06,214.70
2015,06,02,09,07,221.60
2015,06,02,09,08,228.90
2015,06,02,09,09,234.60
2015,06,02,09,10,237.00
2015,06,02,09,11,236.60
2015,06,02,09,12,236.50
2015,06,02,09,13,239.30
2015,06,02,09,14,242.90
2015,06,02,09,15,247.20
2015,06,02,09,16,248.00
2015,06,02,09,17,246.20
2015,06,02,09,18,248.40
2015,06,02,09,19,252.20
2015,06,02,09,20,259.80
2015,06,02,09,21,264.50
2015,06,02,09,22,265.00
2015,06,02,09,23,264.30
2015,06,02,09,24,264.00
2015,06,02,09,25,268.70
2015,06,02,09,26,272.60
2015,06,02,09,27,277.20
2015,06,02,09,28,282.40
2015,06,02,09,29,287.20
2015,06,02,09,30,292.80
2015,06,02,09,31,299.10
2015,06,02,09,32,301.80
2015,06,02,09,33,301.10
2015,06,02,09,34,301.00
2015,06,02,09,35,303.00
2015,06,02,09,36,312.50
2015,06,02,09,37,318.60
2015,06,02,09,38,322.50
2015,06,02,09,39,322.00
2015,06,02,09,40,322.70
2015,06,02,09,41,324.60
2015,06,02,09,42,322.20
2015,06,02,09,43,319.50
2015,06,02,09,44,312.20
2015,06,02,09,45,295.60
2015,06,02,09,46,278.30
2015,06,02,09,47,270.40
2015,06,02,09,48,269.00
2015,06,02,09,49,276.50
2015,06,02,09,50,291.80
2015,06,02,09,51,303.90
2015,06,02,09,52,311.60
2015,06,02,09,53,317.00
2015,06,02,09,54,328.20
2015,06,02,09,55,342.70
2015,06,02,09,56,350.20
2015,06,02,09,57,356.50
2015,06,02,09,58,367.00
2015,06,02,09,59,385.20
2015,06,02,10,00,429.90
2015,06,02,10,01,440.80
2015,06,02,10,02,458.90
2015,06,02,10,03,463.00
2015,06,02,10,04,430.80
2015,06,02,10,05,407.80
2015,06,02,10,06,402.40
2015,06,02,10,07,405.40
2015,06,02,10,08,430.70
2015,06,02,10,09,427.60
2015,06,02,10,10,405.80
2015,06,02,10,11,405.80
2015,06,02,10,12,398.20
2015,06,02,10,13,388.40
2015,06,02,10,14,374.80
2015,06,02,10,15,371.50
2015,06,02,10,16,369.30
2015,06,02,10,17,366.00
2015,06,02,10,18,365.00
2015,06,02,10,19,369.00
2015,06,02,10,20,367.00
2015,06,02,10,21,364.00
2015,06,02,10,22,362.80
2015,06,02,10,23,360.00
2015,06,02,10,24,354.50
2015,06,02,10,25,350.30
2015,06,02,10,26,345.50
2015,06,02,10,27,340.40
2015,06,02,10,28,336.20
2015,06,02,10,29,331.20
2015,06,02,10,30,331.10
2015,06,02,10,31,332.00
2015,06,02,10,32,332.00
2015,06,02,10,33,333.70
2015,06,02,10,34,336.00
2015,06,02,10,35,338.10
2015,06,02,10,36,340.50
2015,06,02,10,37,346.00
2015,06,02,10,38,350.20
2015,06,02,10,39,357.20
2015,06,02,10,40,364.80
2015,06,02,10,41,373.80
2015,06,02,10,42,379.40
2015,06,02,10,43,371.70
2015,06,02,10,44,378.60
2015,06,02,10,45,381.00
2015,06,02,10,46,381.00
2015,06,02,10,47,382.00
2015,06,02,10,48,386.00
2015,06,02,10,49,392.20
2015,06,02,10,50,398.00
2015,06,02,10,51,400.80
2015,06,02,10,52,399.00
2015,06,02,10,53,386.80
2015,06,02,10,54,385.60
2015,06,02,10,55,387.20
2015,06,02,10,56,376.40
2015,06,02,10,57,369.70
2015,06,02,10,58,370.50
2015,06,02,10,59,382.90
2015,06,02,11,00,409.50
2015,06,02,11,01,434.00
2015,06,02,11,02,461.90
2015,06,02,11,03,538.10
2015,06,02,11,04,538.00
2015,06,02,11,05,547.60
2015,06,02,11,06,535.80
2015,06,02,11,07,563.30
2015,06,02,11,08,489.10
2015,06,02,11,09,475.00
2015,06,02,11,10,474.60
2015,06,02,11,11,468.80
2015,06,02,11,12,489.40
2015,06,02,11,13,497.20
2015,06,02,11,14,480.20
2015,06,02,11,15,465.40
2015,06,02,11,16,438.40
2015,06,02,11,17,402.10
2015,06,02,11,18,352.00
2015,06,02,11,19,338.80
2015,06,02,11,20,338.00
2015,06,02,11,21,335.30
2015,06,02,11,22,335.30
2015,06,02,11,23,354.00
2015,06,02,11,24,391.60
2015,06,02,11,25,440.40
2015,06,02,11,26,452.70
2015,06,02,11,27,511.80
2015,06,02,11,28,468.30
2015,06,02,11,29,470.60
2015,06,02,11,30,488.00
2015,06,02,11,31,505.40
2015,06,02,11,32,525.00
2015,06,02,11,33,561.80
2015,06,02,11,34,574.80
2015,06,02,11,35,544.70
2015,06,02,11,36,550.50
2015,06,02,11,37,587.70
2015,06,02,11,38,608.40
2015,06,02,11,39,629.00
2015,06,02,11,40,615.60
2015,06,02,11,41,635.10
2015,06,02,11,42,568.20
2015,06,02,11,43,513.70
2015,06,02,11,44,501.80
2015,06,02,11,45,496.70
2015,06,02,11,46,495.30
2015,06,02,11,47,493.10
2015,06,02,11,48,490.20
2015,06,02,11,49,484.70
2015,06,02,11,50,479.00
2015,06,02,11,51,469.90
2015,06,02,11,52,460.80
2015,06,02,11,53,459.00
2015,06,02,11,54,459.60
2015,06,02,11,55,460.20
2015,06,02,11,56,451.90
2015,06,02,11,57,447.30
2015,06,02,11,58,462.70
2015,06,02,11,59,478.20
2015,06,02,12,00,492.30
2015,06,02,12,01,512.40
2015,06,02,12,02,529.90
2015,06,02,12,03,539.00
2015,06,02,12,04,541.00
2015,06,02,12,05,542.10
2015,06,02,12,06,547.90
2015,06,02,12,07,560.30
2015,06,02,12,08,589.30
2015,06,02,12,09,641.20
2015,06,02,12,10,632.80
2015,06,02,12,11,568.00
2015,06,02,12,12,577.20
2015,06,02,12,13,606.00
2015,06,02,12,14,631.20
2015,06,02,12,15,707.30
2015,06,02,12,16,760.20
2015,06,02,12,17,743.80
2015,06,02,12,18,723.30
2015,06,02,12,19,689.80
2015,06,02,12,20,668.20
2015,06,02,12,21,632.30
2015,06,02,12,22,615.80
2015,06,02,12,23,605.00
2015,06,02,12,24,487.20
2015,06,02,12,25,425.90
2015,06,02,12,26,387.10
2015,06,02,12,27,362.00
2015,06,02,12,28,354.20
2015,06,02,12,29,335.30
2015,06,02,12,30,335.00
2015,06,02,12,31,341.00
2015,06,02,12,32,352.10
2015,06,02,12,33,360.60
2015,06,02,12,34,368.30
2015,06,02,12,35,374.20
2015,06,02,12,36,377.00
2015,06,02,12,37,383.00
2015,06,02,12,38,393.60
2015,06,02,12,39,402.70
2015,06,02,12,40,407.30
2015,06,02,12,41,409.50
2015,06,02,12,42,408.30
2015,06,02,12,43,402.50
2015,06,02,12,44,385.50
2015,06,02,12,45,369.90
2015,06,02,12,46,371.50
2015,06,02,12,47,386.30
2015,06,02,12,48,402.80
2015,06,02,12,49,412.10
2015,06,02,12,50,411.40
2015,06,02,12,51,402.50
2015,06,02,12,52,386.80
2015,06,02,12,53,373.20
2015,06,02,12,54,356.90
2015,06,02,12,55,339.50
2015,06,02,12,56,326.50
2015,06,02,12,57,324.20
2015,06,02,12,58,328.50
2015,06,02,12,59,330.00
2015,06,02,13,00,325.50
2015,06,02,13,01,315.50
2015,06,02,13,02,310.20
2015,06,02,13,03,307.30
2015,06,02,13,04,305.10
2015,06,02,13,05,305.10
2015,06,02,13,06,308.00
2015,06,02,13,07,318.80
2015,06,02,13,08,339.90
2015,06,02,13,09,359.90
2015,06,02,13,10,376.00
2015,06,02,13,11,387.90
2015,06,02,13,12,390.00
2015,06,02,13,13,391.00
2015,06,02,13,14,392.00
2015,06,02,13,15,392.00
2015,06,02,13,16,390.30
2015,06,02,13,17,388.20
2015,06,02,13,18,386.40
2015,06,02,13,19,382.60
2015,06,02,13,20,381.00
2015,06,02,13,21,381.00
2015,06,02,13,22,392.00
2015,06,02,13,23,403.00
2015,06,02,13,24,408.40
2015,06,02,13,25,414.20
2015,06,02,13,26,416.70
2015,06,02,13,27,412.50
2015,06,02,13,28,411.20
2015,06,02,13,29,419.80
2015,06,02,13,30,435.50
2015,06,02,13,31,458.80
2015,06,02,13,32,475.80
2015,06,02,13,33,482.40
2015,06,02,13,34,527.70
2015,06,02,13,35,480.20
2015,06,02,13,36,462.20
2015,06,02,13,37,452.90
2015,06,02,13,38,441.30
2015,06,02,13,39,428.50
2015,06,02,13,40,424.40
2015,06,02,13,41,421.20
2015,06,02,13,42,411.50
2015,06,02,13,43,400.80
2015,06,02,13,44,386.90
2015,06,02,13,45,374.50
2015,06,02,13,46,360.90
2015,06,02,13,47,349.60
2015,06,02,13,48,334.20
2015,06,02,13,49,319.00
2015,06,02,13,50,306.80
2015,06,02,13,51,296.40
2015,06,02,13,52,287.70
2015,06,02,13,53,283.30
2015,06,02,13,54,285.60
2015,06,02,13,55,289.00
2015,06,02,13,56,294.50
2015,06,02,13,57,301.20
2015,06,02,13,58,305.40
2015,06,02,13,59,306.00
2015,06,02,14,00,304.20
2015,06,02,14,01,298.10
2015,06,02,14,02,288.30
2015,06,02,14,03,281.20
2015,06,02,14,04,276.40
2015,06,02,14,05,272.40
2015,06,02,14,06,267.20
2015,06,02,14,07,262.80
2015,06,02,14,08,258.60
2015,06,02,14,09,253.10
2015,06,02,14,10,249.10
2015,06,02,14,11,243.20
2015,06,02,14,12,239.60
2015,06,02,14,13,236.60
2015,06,02,14,14,234.90
2015,06,02,14,15,232.70
2015,06,02,14,16,229.80
2015,06,02,14,17,225.60
2015,06,02,14,18,222.80
2015,06,02,14,19,220.80
2015,06,02,14,20,220.40
2015,06,02,14,21,221.00
2015,06,02,14,22,221.00
2015,06,02,14,23,221.00
2015,06,02,14,24,222.40
2015,06,02,14,25,223.00
2015,06,02,14,26,224.80
2015,06,02,14,27,229.10
2015,06,02,14,28,230.50
2015,06,02,14,29,232.00
2015,06,02,14,30,231.10
2015,06,02,14,31,228.40
2015,06,02,14,32,223.10
2015,06,02,14,33,217.20
2015,06,02,14,34,211.50
2015,06,02,14,35,206.50
2015,06,02,14,36,201.40
2015,06,02,14,37,198.40
2015,06,02,14,38,195.40
2015,06,02,14,39,192.50
2015,06,02,14,40,189.80
2015,06,02,14,41,186.70
2015,06,02,14,42,185.20
2015,06,02,14,43,185.00
2015,06,02,14,44,185.00
2015,06,02,14,45,185.00
2015,06,02,14,46,184.40
2015,06,02,14,47,183.00
2015,06,02,14,48,181.90
2015,06,02,14,49,181.00
2015,06,02,14,50,181.00
2015,06,02,14,51,181.00
2015,06,02,14,52,182.90
2015,06,02,14,53,182.70
2015,06,02,14,54,180.50
2015,06,02,14,55,177.90
2015,06,02,14,56,175.10
2015,06,02,14,57,174.00
2015,06,02,14,58,172.60
2015,06,02,14,59,171.20
2015,06,02,15,00,169.30
2015,06,02,15,01,169.00
2015,06,02,15,02,169.00
2015,06,02,15,03,169.00
2015,06,02,15,04,169.80
2015,06,02,15,05,171.00
2015,06,02,15,06,171.60
2015,06,02,15,07,173.50
2015,06,02,15,08,174.00
2015,06,02,15,09,176.00
2015,06,02,15,10,178.00
2015,06,02,15,11,178.80
2015,06,02,15,12,182.40
2015,06,02,15,13,187.20
2015,06,02,15,14,191.20
2015,06,02,15,15,192.70
2015,06,02,15,16,192.20
2015,06,02,15,17,190.30
2015,06,02,15,18,188.20
2015,06,02,15,19,190.80
2015,06,02,15,20,196.50
2015,06,02,15,21,202.40
2015,06,02,15,22,207.50
2015,06,02,15,23,210.20
2015,06,02,15,24,212.40
2015,06,02,15,25,213.80
2015,06,02,15,26,213.90
2015,06,02,15,27,212.40
2015,06,02,15,28,208.60
2015,06,02,15,29,207.00
2015,06,02,15,30,206.60
2015,06,02,15,31,204.90
2015,06,02,15,32,202.70
2015,06,02,15,33,202.00
2015,06,02,15,34,202.00
2015,06,02,15,35,197.10
2015,06,02,15,36,193.30
2015,06,02,15,37,195.00
2015,06,02,15,38,193.90
2015,06,02,15,39,191.00
2015,06,02,15,40,187.00
2015,06,02,15,41,183.60
2015,06,02,15,42,181.40
2015,06,02,15,43,182.80
2015,06,02,15,44,185.20
2015,06,02,15,45,188.80
2015,06,02,15,46,192.30
2015,06,02,15,47,193.00
2015,06,02,15,48,194.00
2015,06,02,15,49,193.80
2015,06,02,15,50,193.00
2015,06,02,15,51,193.00
2015,06,02,15,52,192.90
2015,06,02,15,53,189.70
2015,06,02,15,54,188.00
2015,06,02,15,55,189.30
2015,06,02,15,56,193.20
2015,06,02,15,57,196.10
2015,06,02,15,58,198.90
2015,06,02,15,59,204.80
2015,06,02,16,00,211.90
2015,06,02,16,01,218.10
2015,06,02,16,02,221.00
2015,06,02,16,03,221.00
2015,06,02,16,04,221.00
2015,06,02,16,05,219.50
2015,06,02,16,06,215.00
2015,06,02,16,07,206.70
2015,06,02,16,08,198.40
2015,06,02,16,09,192.50
2015,06,02,16,10,188.00
2015,06,02,16,11,187.50
2015,06,02,16,12,185.70
2015,06,02,16,13,185.00
2015,06,02,16,14,185.00
2015,06,02,16,15,185.00
2015,06,02,16,16,183.50
2015,06,02,16,17,183.00
2015,06,02,16,18,183.10
2015,06,02,16,19,185.40
2015,06,02,16,20,183.90
2015,06,02,16,21,186.00
2015,06,02,16,22,186.00
2015,06,02,16,23,186.00
2015,06,02,16,24,182.70
2015,06,02,16,25,181.00
2015,06,02,16,26,179.30
2015,06,02,16,27,173.80
2015,06,02,16,28,172.00
2015,06,02,16,29,171.10
2015,06,02,16,30,169.00
2015,06,02,16,31,170.00
2015,06,02,16,32,171.00
2015,06,02,16,33,173.20
2015,06,02,16,34,175.70
2015,06,02,16,35,177.90
2015,06,02,16,36,178.90
2015,06,02,16,37,177.00
2015,06,02,16,38,173.30
2015,06,02,16,39,170.60
2015,06,02,16,40,167.90
2015,06,02,16,41,165.70
2015,06,02,16,42,166.50
2015,06,02,16,43,165.30
2015,06,02,16,44,165.00
2015,06,02,16,45,164.60
2015,06,02,16,46,162.10
2015,06,02,16,47,160.00
2015,06,02,16,48,158.00
2015,06,02,16,49,155.40
2015,06,02,16,50,152.30
2015,06,02,16,51,151.00
2015,06,02,16,52,148.30
2015,06,02,16,53,145.40
2015,06,02,16,54,141.80
2015,06,02,16,55,139.80
2015,06,02,16,56,136.20
2015,06,02,16,57,133.40
2015,06,02,16,58,130.70
2015,06,02,16,59,128.60
2015,06,02,17,00,128.00
2015,06,02,17,01,127.10
2015,06,02,17,02,127.00
2015,06,02,17,03,127.00
2015,06,02,17,04,127.40
2015,06,02,17,05,128.00
2015,06,02,17,06,127.40
2015,06,02,17,07,127.70
2015,06,02,17,08,129.60
2015,06,02,17,09,130.00
2015,06,02,17,10,125.00